Skip Page Navigation
NASA JPL Caltech
NASA Logo - Jet Propulsion Laboratory + View the NASA Portal
+ Center for Near-Earth Object Studies
JPL Home Earth Solar System Stars & Galaxies Technology
JPL Solar System Dynamics
BODIES ORBITS EPHEMERIDES TOOLS PHYSICAL DATA DISCOVERY FAQ SITE MAP
JPL Small-Body Database Browser
Search: [ help ]  
385927 (2006 TM116)
Classification: Main-belt Asteroid          SPK-ID: 2385927
Ephemeris | Orbit Diagram | Orbital Elements | Mission Design | Physical Parameters | Discovery Circumstances | Close-Approach Data ]

[ hide orbit diagram ]

For accurate long-term ephemerides, please instead use our Horizons system.This orbit viewer was implemented using two-body methods, and hence should not be used for determining accurate long-term trajectories (over several years or decades) or planetary encounter circumstances.


Orbital Elements at Epoch 2459396.5 (2021-Jul-01.0) TDB
Reference: JPL 19 (heliocentric ecliptic J2000)
 Element Value Uncertainty (1-sigma)   Units 
e .1603949593306677 8.2614e-08  
a 3.15431515471229 6.1183e-08 au
q 2.648378903756103 2.9312e-07 au
i 10.7674092542261 7.5953e-06 deg
node 125.4810952858514 4.2415e-05 deg
peri 90.89482563135427 5.1006e-05 deg
M 40.98642609078633 2.9213e-05 deg
tp 2459163.533432722675
(2020-Nov-10.03343272)
0.00016244 TDB
period 2046.237552746529
5.60
5.9535e-05
1.63e-07
d
yr
n .1759326523534845 5.1188e-09 deg/d
Q 3.660251405668476 7.0997e-08 au
  Orbit Determination Parameters
   # obs. used (total)      159  
   data-arc span      7576 days (20.74 yr)  
   first obs. used      1999-07-20  
   last obs. used      2020-04-16  
   planetary ephem.      DE441  
   SB-pert. ephem.      SB441-N16  
   condition code      0  
   norm. resid. RMS      .53657  
   source      ORB  
   producer      Otto Matic  
   solution date      2021-Apr-14 11:07:09  

Additional Information
 Earth MOID = 1.67021 au 
 Jupiter MOID = 1.4818 au 
 T_jup = 3.160 
[ show covariance matrix ]

Ephemeris | Orbit Diagram | Orbital Elements | Mission Design | Physical Parameters | Discovery Circumstances | Close-Approach Data ]

Physical Parameter Table
Parameter Symbol Value Units Sigma Reference Notes
absolute magnitude H 16.22   n/a E2021B25  
diameter diameter 4.176 km 0.935 urn:nasa:pds:neowise_diameters_albedos::2.0[mainbelt] (http://adsabs.harvard.edu/abs/2011ApJ...741...68M)  
geometric albedo albedo 0.040   0.026 urn:nasa:pds:neowise_diameters_albedos::2.0[mainbelt] (http://adsabs.harvard.edu/abs/2011ApJ...741...68M)  

385927 (2006 TM116)          Discovered 2006-Oct-02 by Becker, A. C. at Apache Point
Reference: Last Updated: 2014-02-19

[ show close-approach data ]
Ephemeris | Orbit Diagram | Orbital Elements | Mission Design | Physical Parameters | Discovery Circumstances | Close-Approach Data ]
ABOUT SSD CREDITS/AWARDS PRIVACY/COPYRIGHT GLOSSARY LINKS
FirstGov 2021-Jul-28 05:38 UT
(server date/time)  
NASA Home Page
Site Manager:   Ryan S. Park
Webmaster  Alan B. Chamberlin